Time,TemperatureF,DewpointF,PressureIn,WindDirection,WindDirectionDegrees,WindSpeedMPH,WindSpeedGustMPH,Humidity,HourlyPrecipIn,Conditions,Clouds,dailyrainin,SoftwareType,DateUTC
2013-02-24 08:25:00,35.5,8.5,29.94,NW,326,9.0,9.0,32,0.00,,,0.00,Wunderground v.1.15,2013-02-24 15:25:00,
2013-02-24 08:30:00,35.6,8.6,29.94,NW,317,9.0,9.0,32,0.00,,,0.00,Wunderground v.1.15,2013-02-24 15:30:00,
2013-02-24 08:40:00,35.9,8.9,29.94,NW,318,10.0,10.0,32,0.00,,,0.00,Wunderground v.1.15,2013-02-24 15:40:00,
2013-02-24 08:45:00,35.9,9.5,29.94,North,351,11.0,15.0,33,0.00,,,0.00,Wunderground v.1.15,2013-02-24 15:45:00,
2013-02-24 08:55:00,36.1,9.7,29.94,North,352,12.0,12.0,33,0.00,,,0.00,Wunderground v.1.15,2013-02-24 15:55:00,
2013-02-24 09:00:00,36.8,10.3,29.94,West,276,11.0,11.0,33,0.00,,,0.00,Wunderground v.1.15,2013-02-24 16:00:00,
2013-02-24 09:10:00,37.1,10.6,29.95,NNW,340,11.0,11.0,33,0.00,,,0.00,Wunderground v.1.15,2013-02-24 16:10:00,
2013-02-24 09:15:00,37.2,10.0,29.95,NW,319,11.0,11.0,32,0.00,,,0.00,Wunderground v.1.15,2013-02-24 16:15:00,
2013-02-24 09:25:00,37.8,9.8,29.95,NNW,340,10.0,14.0,31,0.00,,,0.00,Wunderground v.1.15,2013-02-24 16:25:00,
2013-02-24 09:30:00,37.9,9.2,29.95,NNW,337,10.0,10.0,30,0.00,,,0.00,Wunderground v.1.15,2013-02-24 16:30:00,
2013-02-24 09:40:00,38.5,8.9,29.95,North,8,10.0,15.0,29,0.00,,,0.00,Wunderground v.1.15,2013-02-24 16:40:00,
2013-02-24 09:45:00,38.7,8.3,29.95,North,356,11.0,15.0,28,0.00,,,0.00,Wunderground v.1.15,2013-02-24 16:45:00,
2013-02-24 09:55:00,39.3,9.6,29.95,WNW,287,8.0,13.0,29,0.00,,,0.00,Wunderground v.1.15,2013-02-24 16:55:00,
2013-02-24 10:00:00,39.1,8.7,29.95,NW,321,8.0,10.0,28,0.00,,,0.00,Wunderground v.1.15,2013-02-24 17:00:00,
2013-02-24 10:10:00,39.2,8.0,29.96,NNE,21,10.0,11.0,27,0.00,,,0.00,Wunderground v.1.15,2013-02-24 17:10:00,
2013-02-24 10:15:00,39.6,9.1,29.96,NW,321,9.0,11.0,28,0.00,,,0.00,Wunderground v.1.15,2013-02-24 17:15:00,
2013-02-24 10:25:00,39.8,7.6,29.96,North,358,9.0,16.0,26,0.00,,,0.00,Wunderground v.1.15,2013-02-24 17:25:00,
2013-02-24 10:30:00,40.2,8.8,29.95,NNE,25,8.0,12.0,27,0.00,,,0.00,Wunderground v.1.15,2013-02-24 17:30:00,
2013-02-24 10:40:00,40.6,8.3,29.96,NNW,345,9.0,9.0,26,0.00,,,0.00,Wunderground v.1.15,2013-02-24 17:40:00,
2013-02-24 10:45:00,41.0,7.8,29.96,NNW,331,9.0,9.0,25,0.00,,,0.00,Wunderground v.1.15,2013-02-24 17:45:00,
2013-02-24 10:55:00,41.3,7.2,29.96,NE,37,8.0,13.0,24,0.00,,,0.00,Wunderground v.1.15,2013-02-24 17:55:00,
2013-02-24 11:00:00,41.1,7.9,29.96,NNE,30,10.0,14.0,25,0.00,,,0.00,Wunderground v.1.15,2013-02-24 18:00:00,
2013-02-24 11:10:00,41.4,7.2,29.96,NNE,30,11.0,11.0,24,0.00,,,0.00,Wunderground v.1.15,2013-02-24 18:10:00,
2013-02-24 11:15:00,41.5,6.4,29.96,ENE,77,11.0,11.0,23,0.00,,,0.00,Wunderground v.1.15,2013-02-24 18:15:00,
2013-02-24 11:25:00,42.0,8.7,29.96,NNE,31,11.0,11.0,25,0.00,,,0.00,Wunderground v.1.15,2013-02-24 18:25:00,
2013-02-24 11:30:00,42.6,9.2,29.96,NNW,330,10.0,14.0,25,0.00,,,0.00,Wunderground v.1.15,2013-02-24 18:30:00,
2013-02-24 11:40:00,42.2,7.9,29.96,North,359,13.0,13.0,24,0.00,,,0.00,Wunderground v.1.15,2013-02-24 18:40:00,
2013-02-24 11:45:00,42.1,7.8,29.96,WNW,302,11.0,13.0,24,0.00,,,0.00,Wunderground v.1.15,2013-02-24 18:45:00,
2013-02-24 11:55:00,42.6,6.3,29.95,NNE,21,12.0,14.0,22,0.00,,,0.00,Wunderground v.1.15,2013-02-24 18:55:00,
2013-02-24 12:00:00,42.9,6.6,29.95,NNW,328,13.0,13.0,22,0.00,,,0.00,Wunderground v.1.15,2013-02-24 19:00:00,
2013-02-24 12:10:00,43.1,7.7,29.95,North,349,10.0,13.0,23,0.00,,,0.00,Wunderground v.1.15,2013-02-24 19:10:00,
2013-02-24 12:15:00,43.5,8.1,29.95,NNE,13,10.0,14.0,23,0.00,,,0.00,Wunderground v.1.15,2013-02-24 19:15:00,
2013-02-24 12:25:00,43.8,8.3,29.95,NW,309,9.0,9.0,23,0.00,,,0.00,Wunderground v.1.15,2013-02-24 19:25:00,
2013-02-24 12:30:00,43.4,8.0,29.95,NW,320,11.0,13.0,23,0.00,,,0.00,Wunderground v.1.15,2013-02-24 19:30:00,
2013-02-24 12:40:00,44.0,8.5,29.95,NNE,13,11.0,11.0,23,0.00,,,0.00,Wunderground v.1.15,2013-02-24 19:40:00,
2013-02-24 12:45:00,43.6,8.2,29.95,West,266,10.0,16.0,23,0.00,,,0.00,Wunderground v.1.15,2013-02-24 19:45:00,
2013-02-24 12:55:00,44.5,7.9,29.95,NW,326,11.0,11.0,22,0.00,,,0.00,Wunderground v.1.15,2013-02-24 19:55:00,
2013-02-24 13:00:00,44.2,7.7,29.95,NW,309,10.0,12.0,22,0.00,,,0.00,Wunderground v.1.15,2013-02-24 20:00:00,
2013-02-24 13:10:00,44.7,9.1,29.95,NNW,334,10.0,10.0,23,0.00,,,0.00,Wunderground v.1.15,2013-02-24 20:10:00,
2013-02-24 13:15:00,44.5,7.9,29.95,North,356,11.0,11.0,22,0.00,,,0.00,Wunderground v.1.15,2013-02-24 20:15:00,
2013-02-24 13:25:00,45.2,8.5,29.95,NNW,340,11.0,13.0,22,0.00,,,0.00,Wunderground v.1.15,2013-02-24 20:25:00,
2013-02-24 13:30:00,45.2,6.4,29.94,NNE,32,12.0,15.0,20,0.00,,,0.00,Wunderground v.1.15,2013-02-24 20:30:00,
2013-02-24 13:40:00,45.5,7.8,29.94,NNE,20,10.0,10.0,21,0.00,,,0.00,Wunderground v.1.15,2013-02-24 20:40:00,
2013-02-24 13:45:00,45.4,6.6,29.94,North,356,10.0,22.0,20,0.00,,,0.00,Wunderground v.1.15,2013-02-24 20:45:00,
2013-02-24 13:55:00,45.6,7.8,29.94,NW,319,12.0,15.0,21,0.00,,,0.00,Wunderground v.1.15,2013-02-24 20:55:00,
2013-02-24 14:01:00,45.6,6.8,29.94,NW,323,12.0,12.0,20,0.00,,,0.00,Wunderground v.1.15,2013-02-24 21:01:00,
2013-02-24 14:10:00,44.7,7.1,29.95,NNW,333,11.0,11.0,21,0.00,,,0.00,Wunderground v.1.15,2013-02-24 21:10:00,
2013-02-24 14:15:00,43.8,6.3,29.95,North,349,12.0,12.0,21,0.00,,,0.00,Wunderground v.1.15,2013-02-24 21:15:00,
2013-02-24 14:25:00,44.8,7.2,29.94,WNW,302,11.0,12.0,21,0.00,,,0.00,Wunderground v.1.15,2013-02-24 21:25:00,
2013-02-24 14:31:00,44.5,6.9,29.95,WNW,302,13.0,13.0,21,0.00,,,0.00,Wunderground v.1.15,2013-02-24 21:31:00,
2013-02-24 14:40:00,44.2,5.6,29.95,NW,326,12.0,12.0,20,0.00,,,0.00,Wunderground v.1.15,2013-02-24 21:40:00,
2013-02-24 14:45:00,44.7,7.1,29.95,NNE,13,13.0,13.0,21,0.00,,,0.00,Wunderground v.1.15,2013-02-24 21:45:00,
2013-02-24 14:55:00,45.1,6.3,29.96,NNW,328,12.0,12.0,20,0.00,,,0.00,Wunderground v.1.15,2013-02-24 21:55:00,
2013-02-24 15:01:00,45.8,8.0,29.96,ENE,64,12.0,12.0,21,0.00,,,0.00,Wunderground v.1.15,2013-02-24 22:01:00,
2013-02-24 15:10:00,44.7,7.1,29.96,North,352,10.0,10.0,21,0.00,,,0.00,Wunderground v.1.15,2013-02-24 22:10:00,
2013-02-24 15:15:00,45.4,9.7,29.95,NNE,15,10.0,10.0,23,0.00,,,0.00,Wunderground v.1.15,2013-02-24 22:15:00,
2013-02-24 15:25:00,46.5,9.6,29.95,NW,310,12.0,12.0,22,0.00,,,0.00,Wunderground v.1.15,2013-02-24 22:25:00,
2013-02-24 15:30:00,46.4,8.5,29.96,NW,317,12.0,12.0,21,0.00,,,0.00,Wunderground v.1.15,2013-02-24 22:30:00,
2013-02-24 15:40:00,46.3,8.4,29.96,NW,312,12.0,12.0,21,0.00,,,0.00,Wunderground v.1.15,2013-02-24 22:40:00,
2013-02-24 15:45:00,46.3,8.4,29.96,North,351,12.0,15.0,21,0.00,,,0.00,Wunderground v.1.15,2013-02-24 22:45:00,
2013-02-24 15:55:00,46.5,8.6,29.97,WNW,302,12.0,16.0,21,0.00,,,0.00,Wunderground v.1.15,2013-02-24 22:55:00,
2013-02-24 16:00:00,46.8,8.8,29.97,NNW,328,11.0,11.0,21,0.00,,,0.00,Wunderground v.1.15,2013-02-24 23:00:00,
2013-02-24 16:10:00,46.5,7.5,29.97,NW,315,12.0,12.0,20,0.00,,,0.00,Wunderground v.1.15,2013-02-24 23:10:00,
2013-02-24 16:15:00,46.3,7.3,29.97,NNW,334,13.0,13.0,20,0.00,,,0.00,Wunderground v.1.15,2013-02-24 23:15:00,
2013-02-24 16:25:00,46.7,7.7,29.98,NNW,347,12.0,13.0,20,0.00,,,0.00,Wunderground v.1.15,2013-02-24 23:25:00,
2013-02-24 16:30:00,46.6,7.6,29.97,WNW,301,12.0,13.0,20,0.00,,,0.00,Wunderground v.1.15,2013-02-24 23:30:00,
2013-02-24 16:40:00,46.4,7.4,29.98,NNW,340,13.0,13.0,20,0.00,,,0.00,Wunderground v.1.15,2013-02-24 23:40:00,
2013-02-24 16:45:00,46.2,7.3,29.98,NNW,342,14.0,14.0,20,0.00,,,0.00,Wunderground v.1.15,2013-02-24 23:45:00,
2013-02-24 16:55:00,46.0,7.1,29.98,NNW,343,12.0,18.0,20,0.00,,,0.00,Wunderground v.1.15,2013-02-24 23:55:00,
2013-02-24 17:00:00,45.6,7.8,29.98,NW,309,12.0,12.0,21,0.00,,,0.00,Wunderground v.1.15,2013-02-25 00:00:00,
2013-02-24 17:10:00,45.4,7.7,29.99,NW,317,13.0,13.0,21,0.00,,,0.00,Wunderground v.1.15,2013-02-25 00:10:00,
2013-02-24 17:16:00,45.5,7.8,29.99,NW,305,11.0,13.0,21,0.00,,,0.00,Wunderground v.1.15,2013-02-25 00:16:00,
2013-02-24 17:25:00,45.3,7.6,30.00,NW,325,11.0,11.0,21,0.00,,,0.00,Wunderground v.1.15,2013-02-25 00:25:00,
2013-02-24 17:30:00,45.3,7.6,30.00,NW,323,10.0,15.0,21,0.00,,,0.00,Wunderground v.1.15,2013-02-25 00:30:00,
2013-02-24 17:40:00,44.3,7.8,30.00,NW,321,11.0,11.0,22,0.00,,,0.00,Wunderground v.1.15,2013-02-25 00:40:00,
2013-02-24 17:45:00,43.8,7.4,30.00,NNW,330,10.0,11.0,22,0.00,,,0.00,Wunderground v.1.15,2013-02-25 00:45:00,
2013-02-24 17:55:00,43.7,8.3,30.00,NNW,342,12.0,12.0,23,0.00,,,0.00,Wunderground v.1.15,2013-02-25 00:55:00,
2013-02-24 18:00:00,43.6,8.2,30.01,NNW,330,13.0,13.0,23,0.00,,,0.00,Wunderground v.1.15,2013-02-25 01:00:00,
2013-02-24 18:10:00,43.4,8.9,30.01,NW,313,11.0,11.0,24,0.00,,,0.00,Wunderground v.1.15,2013-02-25 01:10:00,
2013-02-24 18:15:00,43.2,8.8,30.01,NNW,329,10.0,11.0,24,0.00,,,0.00,Wunderground v.1.15,2013-02-25 01:15:00,
2013-02-24 18:25:00,43.0,8.6,30.01,NW,321,10.0,14.0,24,0.00,,,0.00,Wunderground v.1.15,2013-02-25 01:25:00,
2013-02-24 18:30:00,42.9,8.5,30.02,NW,314,11.0,11.0,24,0.00,,,0.00,Wunderground v.1.15,2013-02-25 01:30:00,
2013-02-24 18:40:00,42.7,9.3,30.02,WNW,297,10.0,10.0,25,0.00,,,0.00,Wunderground v.1.15,2013-02-25 01:40:00,
2013-02-24 18:45:00,42.6,9.2,30.03,North,352,10.0,10.0,25,0.00,,,0.00,Wunderground v.1.15,2013-02-25 01:45:00,
2013-02-24 18:55:00,42.4,9.0,30.03,WNW,291,10.0,15.0,25,0.00,,,0.00,Wunderground v.1.15,2013-02-25 01:55:00,
2013-02-24 19:00:00,42.2,8.8,30.03,NNW,338,10.0,12.0,25,0.00,,,0.00,Wunderground v.1.15,2013-02-25 02:00:00,
2013-02-24 19:10:00,41.9,9.5,30.04,NNW,340,10.0,10.0,26,0.00,,,0.00,Wunderground v.1.15,2013-02-25 02:10:00,
2013-02-24 19:15:00,41.9,9.5,30.04,NW,318,10.0,10.0,26,0.00,,,0.00,Wunderground v.1.15,2013-02-25 02:15:00,
2013-02-24 19:25:00,41.7,9.3,30.05,NW,318,10.0,11.0,26,0.00,,,0.00,Wunderground v.1.15,2013-02-25 02:25:00,
2013-02-24 19:30:00,41.7,9.3,30.05,NW,313,10.0,14.0,26,0.00,,,0.00,Wunderground v.1.15,2013-02-25 02:30:00,
2013-02-24 19:40:00,41.5,9.1,30.05,North,358,11.0,11.0,26,0.00,,,0.00,Wunderground v.1.15,2013-02-25 02:40:00,
2013-02-24 19:45:00,41.5,9.9,30.05,NNW,337,11.0,11.0,27,0.00,,,0.00,Wunderground v.1.15,2013-02-25 02:45:00,
2013-02-24 19:55:00,41.2,9.7,30.05,NW,310,11.0,12.0,27,0.00,,,0.00,Wunderground v.1.15,2013-02-25 02:55:00,
2013-02-24 20:00:00,41.0,9.5,30.05,NW,316,10.0,10.0,27,0.00,,,0.00,Wunderground v.1.15,2013-02-25 03:00:00,
2013-02-24 20:10:00,40.9,9.4,30.06,WNW,301,10.0,15.0,27,0.00,,,0.00,Wunderground v.1.15,2013-02-25 03:10:00,
2013-02-24 20:15:00,40.7,10.1,30.06,NNW,328,10.0,15.0,28,0.00,,,0.00,Wunderground v.1.15,2013-02-25 03:15:00,
2013-02-24 20:25:00,40.4,9.8,30.06,NNW,335,9.0,10.0,28,0.00,,,0.00,Wunderground v.1.15,2013-02-25 03:25:00,
2013-02-24 20:30:00,40.3,9.7,30.06,NW,324,9.0,9.0,28,0.00,,,0.00,Wunderground v.1.15,2013-02-25 03:30:00,
2013-02-24 20:40:00,40.1,10.3,30.06,NNW,329,8.0,8.0,29,0.00,,,0.00,Wunderground v.1.15,2013-02-25 03:40:00,
2013-02-24 20:45:00,40.1,10.3,30.06,NW,317,8.0,8.0,29,0.00,,,0.00,Wunderground v.1.15,2013-02-25 03:45:00,
2013-02-24 20:55:00,39.9,10.2,30.07,NW,306,8.0,8.0,29,0.00,,,0.00,Wunderground v.1.15,2013-02-25 03:55:00,
2013-02-24 21:00:00,40.1,10.3,30.07,NNW,339,8.0,8.0,29,0.00,,,0.00,Wunderground v.1.15,2013-02-25 04:00:00,
2013-02-24 21:10:00,39.9,10.2,30.07,WNW,300,8.0,8.0,29,0.00,,,0.00,Wunderground v.1.15,2013-02-25 04:10:00,
2013-02-24 21:15:00,39.9,10.2,30.07,WNW,297,8.0,8.0,29,0.00,,,0.00,Wunderground v.1.15,2013-02-25 04:15:00,
2013-02-24 22:10:00,39.5,9.8,30.08,NW,309,7.0,10.0,29,0.00,,,0.00,Wunderground v.1.15,2013-02-25 05:10:00,
2013-02-24 22:15:00,39.4,9.7,30.09,NW,320,6.0,10.0,29,0.00,,,0.00,Wunderground v.1.15,2013-02-25 05:15:00,
2013-02-24 22:25:00,39.4,9.7,30.09,NNW,329,6.0,6.0,29,0.00,,,0.00,Wunderground v.1.15,2013-02-25 05:25:00,